Hourly Weather Roundup
Issued by NWS Central Illinois

Home | Current Version | Previous Version | Text Only | Print | Product List | Glossary On
Versions: 1 2 3 4 5 6 7 8 9 10 11 12 13 14 15 16 17 18 19 20 21 22 23 24 25 26 27 28 29 30 31 32 33 34 35 36 37 38 39 40 41 42 43 44 45 46 47 48 49 50
000
NZUS43 KILX 041610
HWRILX

AREA WEATHER ROUNDUP
NATIONAL WEATHER SERVICE, LINCOLN IL
1100 AM CDT MON MAY 04 2015


CITY           SKY/WX    TMP DP  RH WIND       PRES   REMARKS
BLOOMINGTON    LGT RAIN  69  64  84 SW13      30.08R
CHAMPAIGN      CLOUDY    70  62  76 SW16      30.11R
DANVILLE       CLOUDY    63  59  87 S10       30.10S
DECATUR        CLOUDY    73  62  68 SW10      30.10S
EFFINGHAM      CLOUDY    72  56  57 S6        30.16S
FLORA          PTSUNNY   76  56  50 SW6       30.16S
GALESBURG      DRIZZLE   65  62  90 S7        30.08R
JACKSONVILLE   CLOUDY    78  59  50 SW12      30.09R
LACON          CLOUDY    67  62  83 W6        30.09R
LAWRENCEVILLE  PTSUNNY   76  56  49 SW3       30.16S
LITCHFIELD     CLOUDY    75  58  55 S14       30.12R
$$


CITY           SKY/WX    TMP DP  RH WIND       PRES   REMARKS
LINCOLN        CLOUDY    73  62  68 SW9       30.07R
MACOMB         LGT RAIN  66  63  87 S10       30.10R
MATTOON        CLOUDY    69  60  73 S10       30.12S
MT CARMEL AP   PTSUNNY   79  48  34 W3        30.17R
OLNEY-NOBLE AP PTSUNNY   77  55  47 W7        30.16S
PARIS          CLOUDY    69  60  73 S10       30.14S
PEORIA         LGT RAIN  67  62  84 SW8       30.08R
PONTIAC        CLOUDY    68  63  84 SW7       30.11R
RANTOUL        CLOUDY    69  63  81 S15       30.10R
ROBINSON       PTSUNNY   75  54  47 SW5       30.16F
SPRINGFIELD    CLOUDY    76  60  57 SW12      30.09R
TAYLORVILLE    CLOUDY    73  59  60 SW12      30.11R
$$

...REGIONAL REPORTS...


CITY           SKY/WX    TMP DP  RH WIND       PRES   REMARKS
CHICAGO O`HARE CLOUDY    68  58  70 W12       30.09R
KANKAKEE       CLOUDY    64  61  89 SW8       30.12R
MOLINE         PTSUNNY   71  60  68 VRB3      30.08R
MOUNT VERNON   MOSUNNY  N/A N/A N/A SW8       30.18R
PITTSFIELD     CLOUDY    76  58  54 SW9       30.10R
QUINCY         PTSUNNY   73  58  59 W12       30.08R
ROCKFORD       CLOUDY    67  57  70 N6        30.11R
$$


CITY           SKY/WX    TMP DP  RH WIND       PRES   REMARKS
BURLINGTON     CLOUDY    67  63  87 S9        30.06R
CEDAR RAPIDS   CLOUDY    66  61  84 E7        30.09R
DES MOINES     CLOUDY    68  58  70 NE10      30.08R
KIRKSVILLE     MOSUNNY   73  61  65 S9        30.07R
OTTUMWA        PTSUNNY   74  61  63 SW9       30.05R
ST LOUIS       CLOUDY    78  59  51 SW9       30.11S
$$


CITY           SKY/WX    TMP DP  RH WIND       PRES   REMARKS
TERRE HAUTE    CLOUDY    64  59  83 SE7       30.15F
EVANSVILLE     MOSUNNY   75  56  51 S7        30.19R
INDIANAPOLIS   LGT RAIN  60  56  86 S5        30.17R FOG
LAFAYETTE      CLOUDY    61  57  87 S9        30.12S
MADISON        PTSUNNY   68  57  68 N8        30.09R
MILWAUKEE      CLOUDY    64  55  72 NE7       30.09R
$$





USA.gov is the U.S. government's official web portal to all federal, state and local government web resources and services.